Location: Newark
(50.8964°N, 1.4048°W)
Time: 20:52:43
(UTC+00:00)

N. Korean satellite - Pass Details

Date: 31 January 2020
Orbit: 456 x 505 km, 97.2° (Epoch: 22 February)

Event Time Altitude Azimuth Distance (km) Brightness Sun altitude
Rises 04:42:10 0° 32° (NNE) 2,561 10.8 -28.7°
Reaches altitude 10° 04:45:33 10° 67° (ENE) 1,686 10.2 -28.2°
Maximum altitude 04:46:49 12° 88° (E) 1,596 10.1 -28.0°
Drops below altitude 10° 04:48:06 10° 109° (ESE) 1,690 10.1 -27.8°
Sets 04:51:30 0° 143° (SE) 2,577 10.7 -27.2°
